Location: Dąbrówka
(52.2799°N, 15.8070°E)
Time: 22:42:35
(UTC+01:00)

ISS - Pass Details

Date: 31 January 2019
Orbit: 403 x 411 km, 51.6° (Epoch: 23 February)

Event Time Altitude Azimuth Distance (km) Brightness Sun altitude
Rises 19:44:57 0° 279° (W) 2,341 1.3 -28.0°
Reaches altitude 10° 19:47:03 10° 276° (W) 1,480 0.0 -28.3°
Enters shadow 19:48:04 18° 272° (W) 1,082 -0.9 -28.5°
